• In Belgium
  • List of Countries
  • For 7 days
  • Water Temperature
  • Satellite Maps
  • Weather Map
  • Weather Widgets
  • user-avatar
    Login

    Hourly Weather Batina

    Today, 22 September, Friday

    Time Temperature Precipitation Wind Pressure Humidity
    00:00 +20°C° 0 mm 1 mps 673 mmHg 47%
    01:00 +20°C° 0 mm 1 mps 673 mmHg 48%
    02:00 +18°C° 0 mm 2 mps 673 mmHg 49%
    03:00 +18°C° 0 mm 2 mps 673 mmHg 50%
    04:00 +18°C° 0 mm 2 mps 673 mmHg 50%
    05:00 +18°C° 0 mm 2 mps 673 mmHg 50%
    06:00 +18°C° 0 mm 2 mps 673 mmHg 50%
    07:00 +20°C° 0 mm 2 mps 673 mmHg 44%
    08:00 +21°C° 0 mm 2 mps 674 mmHg 38%
    09:00 +24°C° 0 mm 2 mps 675 mmHg 32%
    10:00 +25°C° 0 mm 2 mps 675 mmHg 30%
    11:00 +26°C° 0 mm 3 mps 675 mmHg 28%
    12:00 +27°C° 0 mm 3 mps 675 mmHg 26%
    13:00 +27°C° 0 mm 3 mps 675 mmHg 26%
    14:00 +28°C° 0 mm 3 mps 674 mmHg 25%
    15:00 +28°C° 0 mm 3 mps 674 mmHg 25%
    16:00 +27°C° 0 mm 3 mps 674 mmHg 27%
    17:00 +26°C° 0 mm 2 mps 674 mmHg 29%
    18:00 +26°C° 0 mm 2 mps 674 mmHg 32%
    19:00 +25°C° 0 mm 2 mps 674 mmHg 34%
    20:00 +24°C° 0 mm 2 mps 674 mmHg 37%
    21:00 +23°C° 0 mm 1 mps 675 mmHg 40%
    22:00 +23°C° 0 mm 1 mps 675 mmHg 41%
    23:00 +23°C° 0 mm 1 mps 674 mmHg 43%

    Tomorrow, 23 September, Saturday

    Time Temperature Precipitation Wind Pressure Humidity
    00:00 +22°C° 0 mm 1 mps 674 mmHg 44%
    01:00 +22°C° 0 mm 1 mps 674 mmHg 44%
    02:00 +22°C° 0 mm 1 mps 674 mmHg 44%
    03:00 +22°C° 0 mm 1 mps 674 mmHg 44%
    04:00 +21°C° 0 mm 2 mps 674 mmHg 45%
    05:00 +21°C° 0 mm 2 mps 674 mmHg 45%
    06:00 +20°C° 0 mm 2 mps 674 mmHg 45%
    07:00 +21°C° 0.1 mm 2 mps 674 mmHg 43%
    08:00 +23°C° 0.1 mm 2 mps 675 mmHg 41%
    09:00 +23°C° 0.1 mm 2 mps 675 mmHg 40%
    10:00 +25°C° 0 mm 2 mps 675 mmHg 36%
    11:00 +26°C° 0 mm 3 mps 675 mmHg 32%
    12:00 +27°C° 0 mm 3 mps 676 mmHg 28%
    13:00 +27°C° 0 mm 3 mps 675 mmHg 28%
    14:00 +27°C° 0 mm 4 mps 675 mmHg 28%
    15:00 +28°C° 0 mm 4 mps 675 mmHg 28%
    16:00 +27°C° 0 mm 3 mps 675 mmHg 31%
    17:00 +26°C° 0 mm 3 mps 674 mmHg 33%
    18:00 +25°C° 0 mm 2 mps 674 mmHg 35%
    19:00 +25°C° 0.1 mm 2 mps 674 mmHg 37%
    20:00 +24°C° 0.1 mm 2 mps 675 mmHg 39%
    21:00 +24°C° 0.1 mm 2 mps 675 mmHg 41%
    22:00 +23°C° 0 mm 2 mps 674 mmHg 42%
    23:00 +23°C° 0 mm 2 mps 674 mmHg 43%

    Day after tomorrow, 24 September, Sunday

    Time Temperature Precipitation Wind Pressure Humidity
    00:00 +21°C° 0 mm 2 mps 674 mmHg 44%
    01:00 +21°C° 0 mm 2 mps 674 mmHg 45%
    02:00 +20°C° 0 mm 2 mps 673 mmHg 47%
    03:00 +20°C° 0 mm 2 mps 673 mmHg 48%
    04:00 +20°C° 0 mm 2 mps 673 mmHg 48%
    05:00 +20°C° 0 mm 2 mps 673 mmHg 49%
    06:00 +19°C° 0 mm 2 mps 673 mmHg 49%
    07:00 +21°C° 0 mm 3 mps 674 mmHg 43%
    08:00 +23°C° 0 mm 4 mps 675 mmHg 37%
    09:00 +26°C° 0 mm 4 mps 675 mmHg 32%
    10:00 +27°C° 0 mm 4 mps 675 mmHg 30%
    11:00 +28°C° 0 mm 5 mps 675 mmHg 28%
    12:00 +28°C° 0 mm 5 mps 675 mmHg 26%
    13:00 +28°C° 0 mm 5 mps 675 mmHg 26%
    14:00 +29°C° 0 mm 5 mps 675 mmHg 26%
    15:00 +29°C° 0 mm 4 mps 675 mmHg 25%
    16:00 +28°C° 0.1 mm 4 mps 674 mmHg 29%
    17:00 +27°C° 0.1 mm 4 mps 674 mmHg 33%
    18:00 +25°C° 0.1 mm 3 mps 674 mmHg 37%
    19:00 +25°C° 0.2 mm 3 mps 674 mmHg 42%
    20:00 +24°C° 0.2 mm 2 mps 674 mmHg 47%
    21:00 +23°C° 0.2 mm 2 mps 674 mmHg 52%
    22:00 +22°C° 0 mm 1 mps 674 mmHg 55%
    23:00 +22°C° 0 mm 1 mps 674 mmHg 58%

    25 September, Monday

    Time Temperature Precipitation Wind Pressure Humidity
    00:00 +21°C° 0 mm 1 mps 674 mmHg 61%
    01:00 +21°C° 0 mm 1 mps 673 mmHg 62%
    02:00 +20°C° 0 mm 1 mps 673 mmHg 64%
    03:00 +20°C° 0 mm 1 mps 672 mmHg 65%
    04:00 +20°C° 0 mm 1 mps 672 mmHg 65%
    05:00 +20°C° 0 mm 1 mps 672 mmHg 65%
    06:00 +17°C° 0 mm 0 mps 672 mmHg 65%
    07:00 +21°C° 0 mm 1 mps 673 mmHg 58%
    08:00 +22°C° 0 mm 1 mps 674 mmHg 51%
    09:00 +24°C° 0 mm 1 mps 674 mmHg 44%
    10:00 +25°C° 0 mm 1 mps 674 mmHg 39%
    11:00 +26°C° 0 mm 2 mps 674 mmHg 33%
    12:00 +27°C° 0 mm 2 mps 674 mmHg 27%
    13:00 +27°C° 0 mm 2 mps 674 mmHg 25%
    14:00 +28°C° 0 mm 3 mps 674 mmHg 24%
    15:00 +28°C° 0 mm 3 mps 674 mmHg 22%
    16:00 +27°C° 0 mm 4 mps 674 mmHg 24%
    17:00 +26°C° 0 mm 4 mps 674 mmHg 26%
    18:00 +25°C° 0 mm 4 mps 674 mmHg 28%
    19:00 +25°C° 0 mm 3 mps 674 mmHg 31%
    20:00 +24°C° 0 mm 3 mps 674 mmHg 34%
    21:00 +23°C° 0 mm 2 mps 674 mmHg 37%
    22:00 +21°C° 0 mm 2 mps 674 mmHg 40%
    23:00 +21°C° 0 mm 2 mps 673 mmHg 43%

    26 September, Tuesday

    Time Temperature Precipitation Wind Pressure Humidity
    00:00 +20°C° 0 mm 2 mps 673 mmHg 45%
    01:00 +20°C° 0 mm 2 mps 673 mmHg 47%
    02:00 +20°C° 0 mm 1 mps 673 mmHg 49%
    03:00 +20°C° 0 mm 1 mps 672 mmHg 51%
    04:00 +20°C° 0 mm 1 mps 672 mmHg 52%
    05:00 +19°C° 0 mm 1 mps 673 mmHg 52%
    06:00 +17°C° 0 mm 0 mps 673 mmHg 53%
    07:00 +21°C° 0 mm 1 mps 673 mmHg 49%
    08:00 +22°C° 0 mm 1 mps 674 mmHg 44%
    09:00 +24°C° 0 mm 1 mps 675 mmHg 40%
    10:00 +25°C° 0 mm 2 mps 674 mmHg 36%
    11:00 +26°C° 0 mm 2 mps 674 mmHg 32%
    12:00 +27°C° 0 mm 2 mps 674 mmHg 28%
    13:00 +27°C° 0 mm 3 mps 674 mmHg 26%
    14:00 +27°C° 0 mm 3 mps 674 mmHg 25%
    15:00 +28°C° 0 mm 3 mps 674 mmHg 23%
    16:00 +27°C° 0 mm 3 mps 674 mmHg 24%
    17:00 +26°C° 0 mm 3 mps 674 mmHg 25%
    18:00 +25°C° 0 mm 3 mps 674 mmHg 27%
    19:00 +25°C° 0 mm 2 mps 674 mmHg 30%
    20:00 +24°C° 0 mm 2 mps 674 mmHg 33%
    21:00 +23°C° 0 mm 1 mps 674 mmHg 36%
    22:00 +22°C° 0 mm 1 mps 674 mmHg 38%
    23:00 +22°C° 0 mm 1 mps 673 mmHg 40%

    27 September, Wednesday

    Time Temperature Precipitation Wind Pressure Humidity
    00:00 +21°C° 0 mm 1 mps 673 mmHg 41%
    01:00 +21°C° 0 mm 1 mps 673 mmHg 42%
    02:00 +20°C° 0 mm 1 mps 673 mmHg 43%
    03:00 +20°C° 0 mm 1 mps 672 mmHg 44%
    04:00 +20°C° 0 mm 1 mps 673 mmHg 45%
    05:00 +20°C° 0 mm 1 mps 673 mmHg 45%
    06:00 +20°C° 0 mm 1 mps 673 mmHg 45%
    07:00 +21°C° 0 mm 1 mps 674 mmHg 41%
    08:00 +23°C° 0 mm 1 mps 674 mmHg 37%
    09:00 +25°C° 0 mm 1 mps 675 mmHg 34%
    10:00 +25°C° 0 mm 2 mps 675 mmHg 31%
    11:00 +26°C° 0 mm 3 mps 675 mmHg 29%
    12:00 +27°C° 0 mm 3 mps 675 mmHg 26%
    13:00 +28°C° 0 mm 3 mps 675 mmHg 26%
    14:00 +28°C° 0 mm 4 mps 675 mmHg 25%
    15:00 +28°C° 0 mm 4 mps 674 mmHg 25%
    16:00 +27°C° 0 mm 4 mps 674 mmHg 28%
    17:00 +26°C° 0 mm 4 mps 674 mmHg 32%
    18:00 +25°C° 0 mm 3 mps 674 mmHg 35%
    19:00 +24°C° 0 mm 3 mps 674 mmHg 40%
    20:00 +23°C° 0 mm 2 mps 674 mmHg 44%
    21:00 +23°C° 0 mm 2 mps 674 mmHg 49%
    22:00 +21°C° 0 mm 2 mps 674 mmHg 52%
    23:00 +21°C° 0 mm 2 mps 674 mmHg 54%
    Show more